| time (UTC) | temp F | wind direction | speed knots | gust knots | rain 1hr in | rain 24hr in | rain mn in | humidity % | barometer mb |
| 20260506050104 | 78 | 0 | 0.0 | 0.9 | 0.00 | 0.00 | 0.00 | 86 | 1009.1 |
| 20260506044546 | 78 | 0 | 0.0 | 3.5 | 0.00 | 0.00 | 0.00 | 85 | 1009.1 |
| 20260506043044 | 78 | 0 | 0.0 | 3.5 | 0.00 | 0.00 | 0.00 | 85 | 1009.0 |
| 20260506041557 | 78 | 0 | 0.0 | 0.9 | 0.00 | 0.00 | 0.00 | 85 | 1009.2 |
| 20260506040052 | 78 | 0 | 0.0 | 3.5 | 0.00 | 0.00 | 0.00 | 85 | 1008.9 |
| 20260506034552 | 78 | 0 | 0.0 | 2.6 | 0.00 | 0.00 | 0.00 | 85 | 1008.7 |
| 20260506033043 | 79 | 0 | 0.0 | 5.2 | 0.00 | 0.00 | 0.00 | 84 | 1008.5 |
| 20260506031548 | 79 | 0 | 0.0 | 5.2 | 0.00 | 0.00 | 0.00 | 84 | 1008.4 |
| 20260506030043 | 79 | 0 | 0.0 | 3.5 | 0.00 | 0.00 | 0.00 | 83 | 1008.2 |
| 20260506024540 | 79 | 0 | 0.0 | 1.7 | 0.00 | 0.00 | 0.00 | 83 | 1008.0 |
| 20260506023102 | 79 | 0 | 0.0 | 6.1 | 0.00 | 0.00 | 0.00 | 82 | 1007.7 |
| 20260506021552 | 79 | 0 | 0.0 | 4.3 | 0.00 | 0.00 | 0.00 | 82 | 1007.6 |
| 20260506020055 | 79 | 0 | 0.0 | 0.9 | 0.00 | 0.00 | 0.00 | 81 | 1007.4 |
| 20260506014544 | 79 | 0 | 0.0 | 1.7 | 0.00 | 0.00 | 0.00 | 81 | 1007.3 |
| 20260506013052 | 80 | 0 | 0.0 | 0.0 | 0.00 | 0.00 | 0.00 | 81 | 1007.1 |
| 20260506011547 | 80 | 0 | 0.0 | 3.5 | 0.00 | 0.00 | 0.00 | 80 | 1007.0 |
| 20260506010124 | 80 | 0 | 0.0 | 3.5 | 0.00 | 0.00 | 0.00 | 79 | 1006.7 |
| 20260506004546 | 81 | 0 | 0.0 | 2.6 | 0.00 | 0.00 | 0.00 | 79 | 1006.6 |
| 20260506003054 | 81 | 0 | 0.0 | 3.5 | 0.00 | 0.00 | 0.00 | 78 | 1006.6 |
| 20260506001553 | 81 | 0 | 0.0 | 5.2 | 0.00 | 0.00 | 0.00 | 78 | 1006.7 |
| 20260506000044 | 81 | 0 | 0.0 | 2.6 | 0.00 | 0.00 | 0.00 | 77 | 1006.5 |
| 20260505234543 | 82 | 0 | 0.0 | 3.5 | 0.00 | 0.00 | 0.00 | 77 | 1006.6 |
| 20260505233054 | 82 | 112 | 0.0 | 6.1 | 0.00 | 0.00 | 0.00 | 77 | 1006.3 |
| 20260505231549 | 83 | 0 | 0.0 | 3.5 | 0.00 | 0.00 | 0.00 | 76 | 1006.4 |
| 20260505230110 | 83 | 0 | 0.9 | 7.0 | 0.00 | 0.00 | 0.00 | 76 | 1006.3 |
| 20260505224541 | 83 | 0 | 0.0 | 2.6 | 0.00 | 0.00 | 0.00 | 76 | 1006.4 |
| 20260505223050 | 84 | 0 | 0.0 | 1.7 | 0.00 | 0.00 | 0.00 | 74 | 1006.2 |
| 20260505221550 | 84 | 0 | 0.0 | 2.6 | 0.00 | 0.00 | 0.00 | 75 | 1006.5 |
| 20260505220052 | 84 | 0 | 0.0 | 3.5 | 0.00 | 0.00 | 0.00 | 73 | 1006.5 |
| 20260505214548 | 84 | 0 | 0.0 | 6.1 | 0.00 | 0.00 | 0.00 | 74 | 1006.8 |
| 20260505213045 | 84 | 0 | 0.0 | 3.5 | 0.00 | 0.00 | 0.00 | 74 | 1007.0 |
| 20260505211549 | 85 | 0 | 0.0 | 3.5 | 0.00 | 0.00 | 0.00 | 71 | 1007.1 |
| 20260505210056 | 85 | 0 | 0.0 | 3.5 | 0.00 | 0.00 | 0.00 | 73 | 1007.1 |
| 20260505204549 | 85 | 116 | 0.0 | 3.5 | 0.00 | 0.00 | 0.00 | 74 | 1007.2 |
| 20260505203040 | 84 | 263 | 0.0 | 3.5 | 0.00 | 0.00 | 0.00 | 76 | 1007.4 |
| 20260505201549 | 84 | 0 | 0.0 | 4.3 | 0.00 | 0.00 | 0.00 | 76 | 1007.7 |
| 20260505200048 | 84 | 0 | 0.9 | 3.5 | 0.00 | 0.00 | 0.00 | 74 | 1007.9 |
| 20260505194545 | 84 | 0 | 0.0 | 7.8 | 0.00 | 0.00 | 0.00 | 76 | 1008.1 |
| 20260505193101 | 84 | 148 | 0.9 | 6.1 | 0.00 | 0.00 | 0.00 | 75 | 1008.3 |
| 20260505191543 | 84 | 0 | 0.0 | 4.3 | 0.00 | 0.00 | 0.00 | 75 | 1008.3 |
| 20260505190049 | 83 | 0 | 0.0 | 4.3 | 0.00 | 0.00 | 0.00 | 76 | 1008.4 |
| 20260505184549 | 83 | 0 | 0.0 | 5.2 | 0.00 | 0.00 | 0.00 | 79 | 1008.5 |
| 20260505183051 | 81 | 0 | 0.0 | 4.3 | 0.00 | 0.00 | 0.00 | 82 | 1008.7 |
| 20260505181546 | 80 | 0 | 0.0 | 2.6 | 0.00 | 0.00 | 0.00 | 82 | 1008.9 |
| 20260505180040 | 80 | 0 | 0.0 | 5.2 | 0.00 | 0.00 | 0.00 | 82 | 1008.9 |
| 20260505174549 | 80 | 0 | 0.0 | 3.5 | 0.00 | 0.00 | 0.00 | 82 | 1009.0 |
| 20260505173054 | 80 | 0 | 0.0 | 3.5 | 0.00 | 0.00 | 0.00 | 81 | 1009.1 |
| 20260505171544 | 80 | 89 | 0.9 | 5.2 | 0.00 | 0.00 | 0.00 | 81 | 1009.1 |
| 20260505170043 | 79 | 0 | 0.0 | 2.6 | 0.00 | 0.00 | 0.00 | 83 | 1009.2 |
| 20260505164551 | 79 | 0 | 0.0 | 6.1 | 0.00 | 0.00 | 0.00 | 84 | 1009.4 |
| 20260505163051 | 79 | 0 | 0.0 | 2.6 | 0.00 | 0.00 | 0.00 | 84 | 1009.4 |
| 20260505161548 | 78 | 0 | 0.0 | 0.9 | 0.00 | 0.00 | 0.00 | 85 | 1009.3 |
| 20260505153043 | 77 | 0 | 0.0 | 7.0 | 0.00 | 0.00 | 0.00 | 85 | 1009.0 |
| 20260505151538 | 77 | 141 | 0.0 | 6.1 | 0.00 | 0.00 | 0.00 | 85 | 1009.0 |
| 20260505124553 | 72 | 0 | 0.0 | 0.0 | 0.00 | 0.00 | 0.00 | 90 | 1008.5 |
| 20260505123042 | 72 | 0 | 0.0 | 0.0 | 0.00 | 0.00 | 0.00 | 90 | 1008.2 |
| 20260505121546 | 71 | 0 | 0.0 | 1.7 | 0.00 | 0.00 | 0.00 | 90 | 1008.5 |
| 20260505120046 | 71 | 0 | 0.0 | 0.0 | 0.00 | 0.00 | 0.00 | 90 | 1008.3 |
| 20260505114544 | 71 | 0 | 0.0 | 1.7 | 0.00 | 0.00 | 0.00 | 90 | 1008.0 |
| 20260505113044 | 71 | 0 | 0.0 | 2.6 | 0.00 | 0.00 | 0.00 | 90 | 1008.2 |
| 20260505111543 | 71 | 0 | 0.0 | 0.0 | 0.00 | 0.00 | 0.00 | 90 | 1008.3 |
| 20260505101550 | 71 | 0 | 0.0 | 0.0 | 0.00 | 0.00 | 0.00 | 89 | 1008.3 |
| 20260505100045 | 70 | 0 | 0.0 | 0.0 | 0.00 | 0.00 | 0.00 | 89 | 1008.3 |
| 20260505094547 | 70 | 0 | 0.0 | 0.0 | 0.00 | 0.00 | 0.00 | 89 | 1008.5 |
| 20260505093057 | 70 | 0 | 0.0 | 0.0 | 0.00 | 0.00 | 0.00 | 89 | 1008.5 |
| 20260505091549 | 70 | 0 | 0.0 | 0.0 | 0.00 | 0.00 | 0.00 | 89 | 1008.6 |
| 20260505090048 | 70 | 0 | 0.0 | 0.0 | 0.00 | 0.00 | 0.00 | 88 | 1008.6 |
| 20260505084553 | 70 | 0 | 0.0 | 0.0 | 0.00 | 0.00 | 0.00 | 88 | 1008.7 |
| 20260505083055 | 71 | 0 | 0.0 | 1.7 | 0.00 | 0.00 | 0.00 | 87 | 1008.7 |
| 20260505081556 | 71 | 0 | 0.0 | 0.9 | 0.00 | 0.00 | 0.00 | 87 | 1009.1 |
| 20260505080048 | 71 | 0 | 0.0 | 0.9 | 0.00 | 0.00 | 0.00 | 87 | 1009.1 |
| 20260505074549 | 71 | 0 | 0.0 | 0.0 | 0.00 | 0.00 | 0.00 | 87 | 1009.3 |
| 20260505073046 | 71 | 0 | 0.0 | 0.9 | 0.00 | 0.00 | 0.00 | 86 | 1009.3 |
| 20260505071547 | 71 | 0 | 0.0 | 2.6 | 0.00 | 0.00 | 0.00 | 86 | 1009.5 |
| 20260505070041 | 71 | 0 | 0.0 | 0.9 | 0.00 | 0.00 | 0.00 | 85 | 1009.7 |
| 20260505064546 | 71 | 0 | 0.0 | 0.9 | 0.00 | 0.00 | 0.00 | 85 | 1009.9 |
| 20260505063047 | 71 | 0 | 0.0 | 1.7 | 0.00 | 0.00 | 0.00 | 85 | 1009.8 |
| 20260505061552 | 71 | 0 | 0.0 | 2.6 | 0.00 | 0.00 | 0.00 | 84 | 1010.0 |
| 20260505060049 | 71 | 148 | 0.0 | 2.6 | 0.00 | 0.00 | 0.00 | 84 | 1010.2 |